Location: Unspecified
(43.3830°N, 0.0000°E)
Time: 00:20:23
(UTC+00:00)

Explorer 7 - Pass Details

Date: 30 June 2019
Orbit: 485 x 680 km, 50.3° (Epoch: 19 July)

Event Time Altitude Azimuth Distance (km) Brightness Sun altitude
Rises 12:41:42 0° 291° (WNW) 2,908 10.5 68.3°
Reaches altitude 10° 12:44:21 10° 277° (W) 2,029 10.0 68.1°
Maximum altitude 12:48:02 23° 225° (SW) 1,378 9.6 67.8°
Drops below altitude 10° 12:51:50 10° 174° (S) 2,086 10.2 67.5°
Sets 12:54:36 0° 160° (SSE) 3,010 10.8 67.2°
